Location: Auckland
(36.8500°S, 174.7800°E)
Time: 03:47:07
(UTC+12:00)

ISS - Visible Passes

Search period start: 24 August 2017 00:00
Search period end: 03 September 2017 00:00
Orbit: 401 x 408 km, 51.6° (Epoch: 24 August)

Date Brightness Start Highest point End Pass type
(mag) Time Alt. Az. Time Alt. Az. Time Alt. Az.
25 Aug -1.7 19:49:32 10° NW 19:50:48 21° NW 19:50:48 21° NW visible
26 Aug -2.8 18:57:39 10° NNW 19:00:35 30° NE 19:01:23 26° ENE visible
27 Aug -2.9 19:41:26 10° WNW 19:44:33 46° SW 19:44:33 46° SW visible
28 Aug -3.9 18:48:59 10° NW 18:52:17 86° NE 18:54:53 16° SE visible
28 Aug -0.4 20:27:10 10° WSW 20:27:34 11° SW 20:27:34 11° SW visible
29 Aug -1.7 19:33:55 10° W 19:36:35 22° SSW 19:37:45 18° S visible
30 Aug -2.5 18:40:59 10° WNW 18:44:05 37° SW 18:47:13 10° SE visible
31 Aug -1.0 19:26:59 10° SW 19:28:38 13° SSW 19:30:18 10° S visible
01 Sep -1.4 18:33:33 10° WSW 18:36:00 19° SSW 18:38:30 10° SSE visible
